Regional Weather Roundup
Issued by NWS

Home | Current Version | Previous Version | Text Only | Print | Product List | Glossary On
Versions: 1 2 3 4 5 6 7 8 9 10 11 12 13 14 15 16 17 18 19 20 21 22 23 24 25 26 27 28 29 30 31 32 33 34 35 36 37 38 39 40 41 42 43 44 45 46 47 48 49 50
000
ASUS43 KMKX 311921
RWRWI

WISCONSIN REGIONAL WEATHER ROUNDUP
NATIONAL WEATHER SERVICE MILWAUKEE/SULLIVAN WI
200 PM CDT FRI JUL 31 2015

NOTE: "FAIR" INDICATES FEW OR NO CLOUDS BELOW 12,000 FEET WITH NO
SIGNIFICANT WEATHER AND/OR OBSTRUCTIONS TO VISIBILITY.

WIZ001-002-006>008-014>016-023>028-312000-
NORTHWEST WISCONSIN

CITY           SKY/WX    TMP DP  RH WIND       PRES   REMARKS
SUPERIOR ARPT  PTSUNNY   76  56  48 NW14G20   29.94F
ASHLAND        MOSUNNY   78  55  44 W12G18    29.94F
HAYWARD        PTSUNNY   77  50  38 W12G18    29.98F
SIREN          MOSUNNY   77  51  39 NW13G24   30.01F
CUMBERLAND     PTSUNNY   73  50  43 NW17G25   30.01F
RICE LAKE      MOSUNNY   75  52  44 W15G23    30.02F
CHETEK         PTSUNNY   77  55  45 W9G23     30.01F
LADYSMITH      MOSUNNY   75  51  42 NW15      30.01S
EAU CLAIRE     MOSUNNY   80  51  36 NW17G28   30.00F HX  80
MENOMONIE      MOSUNNY   80  49  32 W17G28    30.02F HX  80
NEW RICHMOND   MOSUNNY   77  50  37 NW16G26   30.04S
OSCEOLA        MOSUNNY   77  50  38 NW17      30.05F
$$

WIZ003>005-009-010-017-018-312000-
NORTH CENTRAL WISCONSIN

CITY           SKY/WX    TMP DP  RH WIND       PRES   REMARKS
MANITOWISH WTR PTSUNNY   71  52  50 W16G25    29.95S
ARBOR VITAE    PTSUNNY   76  52  43 NW15G22   29.94F
WOODRUFF       PTSUNNY   76  52  43 NW15G22   29.94F
RHINELANDER    PTSUNNY   76  50  40 NW14G23   29.95S
EAGLE RIVER    MOSUNNY   75  47  37 NW18      29.93S
LAND O LAKES   PTSUNNY   74  47  38 NW15G23   29.94S
PHILLIPS       PTSUNNY   73  51  44 W13G23    29.96F
TOMAHAWK       MOSUNNY   74  50  43 NW15G23   29.96S
MEDFORD        MOSUNNY   73  53  48 NW15      29.98F
MERRILL        NOT AVBL
$$

WIZ029-030-035-036-043>047-312000-
CENTRAL WISCONSIN

CITY           SKY/WX    TMP DP  RH WIND       PRES   REMARKS
WAUSAU         MOSUNNY   81  50  33 W24G31    29.94F HX  80
MOSINEE        PTSUNNY   75  52  43 NW16G25   29.97F
MARSHFIELD     MOSUNNY   79  50  36 NW21G28   29.98F
STEVENS POINT  PTSUNNY   76  51  41 NW14      29.96F
WAUPACA        MOSUNNY   82  47  29 W15G26    29.94F HX  80
WAUTOMA        MOSUNNY   82  47  29 NW20G26   29.96F HX  80
WISC RAPIDS    MOSUNNY   80  48  32 NW20G30   29.99S
CAMP DOUGLAS   MOSUNNY   79  54  41 NW21G30   29.99F
$$

WIZ011>013-019>022-031-037>040-048>050-312000-
NORTHEAST WISCONSIN

CITY           SKY/WX    TMP DP  RH WIND       PRES   REMARKS
ANTIGO         PTSUNNY   77  52  42 NW18G24   29.94F
SHAWANO        MOSUNNY   81  50  34 W10G16    29.91S HX  80
OCONTO         PTSUNNY   81  52  36 NW13G20   29.87S HX  80
STURGEON BAY   MOSUNNY   81  54  39 NW15G23   29.89S HX  80
GREEN BAY      MOSUNNY   82  54  37 NW16G24   29.90F HX  81
MANITOWOC      MOSUNNY   81  50  33 MISG      29.89F HX  80
APPLETON       PTSUNNY   79  46  31 W17G29    29.94S
CLINTONVILLE   MOSUNNY   79  45  29 NW17G24   29.92S
OSHKOSH        PTSUNNY   78  50  37 W17G25    29.93F
$$

WIZ032>034-041-042-053>061-312000-
SOUTHWEST WISCONSIN

CITY           SKY/WX    TMP DP  RH WIND       PRES   REMARKS
LA CROSSE      SUNNY     83  51  33 NW20      30.01F HX  81
SPARTA         MOSUNNY   81  46  29 NW15G30   30.02S
VIROQUA        SUNNY     78  51  38 W13G23    30.04F
BOSCOBEL       SUNNY     85  50  29 W16G26    30.02F HX  83
PRAIRIE DU CHI SUNNY     83  44  24 NW16G25   30.03S HX  81
PLATTEVILLE    SUNNY     81  51  35 NW15      30.03F HX  80
$$

WIZ056-057-062-063-064-067-068-312000-
SOUTH CENTRAL WISCONSIN

CITY           SKY/WX    TMP DP  RH WIND       PRES   REMARKS
REEDSBURG      MOSUNNY   81  50  33 NW13      29.99F HX  80
BARABOO/DELLS  SUNNY     81  42  25 NW10G23   29.98F
LONE ROCK      SUNNY     83  50  31 NW16G24   30.00F HX  81
MINERAL POINT  SUNNY     81  46  30 W18G24    30.03S HX  80
MADISON        MOSUNNY   80  49  33 NW13G29   29.98F
MIDDLETON      SUNNY     82  42  24 NW17G24   29.99F HX  80
WATERTOWN      MOSUNNY   80  53  39 NW13G24   29.96F HX  80
MONROE         SUNNY     81  46  30 NW23G30   30.01S HX  80
JANESVILLE     MOSUNNY   84  45  24 NW22G28   29.98F HX  82
$$

WIZ051-052-058>065-066-070>072-312000-
SOUTHEAST WISCONSIN

CITY           SKY/WX    TMP DP  RH WIND       PRES   REMARKS
MILWAUKEE      MOSUNNY   84  48  28 NW17G28   29.93F HX  82
WAUKESHA       MOSUNNY   81  46  30 W23G30    29.97S HX  80
MILWAUKEE/TIMM MOSUNNY   82  45  26 MISG      29.95F HX  80
RACINE         LGT RAIN  84  46  26 NW18G29   29.96S HX  82
BURLINGTON     SUNNY     82  46  28 NW21G28   29.96F HX  80
KENOSHA        SUNNY     83  52  34 W17G32    29.95F HX  82
FOND DU LAC    MOSUNNY   81  52  36 NW20G28   29.94F HX  80
SHEBOYGAN      MOSUNNY   80  52  37 W13G25    29.92F HX  80
WEST BEND      MOSUNNY   79  45  29 NW22G30   29.95S
JUNEAU         SUNNY     78  51  39 W10G21    29.97S
$$

LSZ147-162-312000-
LAKE SUPERIOR

STATION/POSITION TIME  TEMP    WIND        PRES    WAVE
                       AIR SEA DIR/SP/G            HT/PER
                 (UTC) (F)     (DEG/KT/KT) (MB)    (FT/S)
W MID LAKE BUOY  1850   58 54  270/ 14/ 16 1011.9R   2/ 4
DEVILS ISLAND    1900   63     250/ 11/ 15 1012.8F
PORT WING        1800   70     270/ 11/ 14 1014.2F
SAXON HARBOR     1800   69                 1013.5
$$

LMZ867-665-643>646-312000-
LAKE MICHIGAN

STATION/POSITION TIME  TEMP    WIND        PRES    WAVE
                       AIR SEA DIR/SP/G            HT/PER
                 (UTC) (F)     (DEG/KT/KT) (MB)    (FT/S)
CHAMBERS ISLAND  1800   74     300/  6/ 10 1010.8F
S GREEN BAY BUOY 1900   73 71  320/ 10/ 14 1013.2S
N MID LAKE BUOY  1850   71 69  240/  8/ 10 1009.9F   1/ 4
NORTHPORT PIER   1800   77     300/ 10/ 20 1010.5F
SISTER BAY       1814   79     310/ 14/ 15   N/A
ALGOMA LAKESHORE 1842          260/ 11/ 26   N/A
KEWAUNEE LAKESHO 1900   79     290/ 12/ 19 1011.3F
SHEBOYGAN LAKESH 1900   78     280/ 19/ 22 1012.9F
PORT WASHINGTON  1840   83     300/ 12/ 19 1013.9F
ATWATER BUOY     1900   75 65  280/ 16/ 19 1014.9F
MILWAUKEE LAKESH 1900   80     290/ 17/ 23   N/A
KENOSHA   LAKESH 1900   83     300/ 20/ 29 1013.2S
$$

TC  - TEMPERATURE IN CELSIUS
VSB - VISIBILITY IN STATUTE MILES
WCI - WIND CHILL INDEX
HX  - HEAT INDEX




USA.gov is the U.S. government's official web portal to all federal, state and local government web resources and services.